Time,TemperatureF,DewpointF,PressureIn,WindDirection,WindDirectionDegrees,WindSpeedMPH,WindSpeedGustMPH,Humidity,HourlyPrecipIn,Conditions,Clouds,dailyrainin,SolarRadiationWatts/m^2,SoftwareType,DateUTC
2013-04-02 00:02:00,19.0,-1.0,-100.00,West,272,3.0,6.0,41,0.00,,,0.00,0.000000,,2013-04-02 05:02:00,
2013-04-02 00:23:00,19.0,5.0,-100.00,West,275,4.0,8.0,54,0.00,,,0.00,0.000000,,2013-04-02 05:23:00,
2013-04-02 00:32:00,19.0,5.0,-100.00,West,275,4.0,8.0,54,0.00,,,0.00,0.000000,,2013-04-02 05:32:00,
2013-04-02 00:43:00,19.0,5.0,-100.00,West,275,4.0,8.0,54,0.00,,,0.00,0.000000,,2013-04-02 05:43:00,
2013-04-02 00:52:00,19.0,5.0,-100.00,West,275,4.0,8.0,54,0.00,,,0.00,0.000000,,2013-04-02 05:52:00,
2013-04-02 01:02:00,19.0,5.0,-100.00,West,275,4.0,8.0,54,0.00,,,0.00,0.000000,,2013-04-02 06:02:00,
2013-04-02 01:22:00,17.0,4.0,-100.00,WSW,258,3.0,7.0,57,0.00,,,0.00,0.000000,,2013-04-02 06:22:00,
2013-04-02 01:32:00,17.0,4.0,-100.00,WSW,258,3.0,7.0,57,0.00,,,0.00,0.000000,,2013-04-02 06:32:00,
2013-04-02 01:42:00,17.0,4.0,-100.00,WSW,258,3.0,7.0,57,0.00,,,0.00,0.000000,,2013-04-02 06:42:00,
2013-04-02 01:52:00,17.0,4.0,-100.00,WSW,258,3.0,7.0,57,0.00,,,0.00,0.000000,,2013-04-02 06:52:00,
2013-04-02 02:02:00,17.0,4.0,-100.00,WSW,258,3.0,7.0,57,0.00,,,0.00,0.000000,,2013-04-02 07:02:00,
2013-04-02 02:32:00,15.0,5.0,-100.00,West,268,3.0,6.0,63,0.00,,,0.00,0.000000,,2013-04-02 07:32:00,
2013-04-02 02:43:00,15.0,5.0,-100.00,West,268,3.0,6.0,63,0.00,,,0.00,0.000000,,2013-04-02 07:43:00,
2013-04-02 02:53:00,15.0,5.0,-100.00,West,268,3.0,6.0,63,0.00,,,0.00,0.000000,,2013-04-02 07:53:00,
2013-04-02 03:02:00,15.0,5.0,-100.00,West,268,3.0,6.0,63,0.00,,,0.00,0.000000,,2013-04-02 08:02:00,
2013-04-02 03:32:00,14.0,5.0,-100.00,West,271,4.0,7.0,66,0.00,,,0.00,0.000000,,2013-04-02 08:32:00,
2013-04-02 03:43:00,14.0,5.0,-100.00,West,271,4.0,7.0,66,0.00,,,0.00,0.000000,,2013-04-02 08:43:00,
2013-04-02 03:52:00,14.0,5.0,-100.00,West,271,4.0,7.0,66,0.00,,,0.00,0.000000,,2013-04-02 08:52:00,
2013-04-02 04:02:00,14.0,5.0,-100.00,West,271,4.0,7.0,66,0.00,,,0.00,0.000000,,2013-04-02 09:02:00,
2013-04-02 04:33:00,13.0,4.0,-100.00,West,272,4.0,7.0,66,0.00,,,0.00,0.000000,,2013-04-02 09:33:00,
2013-04-02 04:43:00,13.0,4.0,-100.00,West,272,4.0,7.0,66,0.00,,,0.00,0.000000,,2013-04-02 09:43:00,
2013-04-02 04:53:00,13.0,4.0,-100.00,West,272,4.0,7.0,66,0.00,,,0.00,0.000000,,2013-04-02 09:53:00,
2013-04-02 05:03:00,13.0,4.0,-100.00,West,272,4.0,7.0,66,0.00,,,0.00,0.000000,,2013-04-02 10:03:00,
2013-04-02 05:24:00,11.0,3.0,-100.00,West,263,4.0,7.0,69,0.00,,,0.00,0.000000,,2013-04-02 10:24:00,
2013-04-02 05:33:00,11.0,3.0,-100.00,West,263,4.0,7.0,69,0.00,,,0.00,0.000000,,2013-04-02 10:33:00,
2013-04-02 05:43:00,11.0,3.0,-100.00,West,263,4.0,7.0,69,0.00,,,0.00,0.000000,,2013-04-02 10:43:00,
2013-04-02 05:52:00,11.0,3.0,-100.00,West,263,4.0,7.0,69,0.00,,,0.00,0.000000,,2013-04-02 10:52:00,
2013-04-02 06:02:00,11.0,3.0,-100.00,West,263,4.0,7.0,69,0.00,,,0.00,0.000000,,2013-04-02 11:02:00,
2013-04-02 06:33:00,11.0,3.0,-100.00,West,279,4.0,7.0,70,0.00,,,0.00,0.000000,,2013-04-02 11:33:00,
2013-04-02 06:43:00,11.0,3.0,-100.00,West,279,4.0,7.0,70,0.00,,,0.00,0.000000,,2013-04-02 11:43:00,
2013-04-02 06:53:00,11.0,3.0,-100.00,West,279,4.0,7.0,70,0.00,,,0.00,0.000000,,2013-04-02 11:53:00,
2013-04-02 07:02:00,11.0,3.0,-100.00,West,279,4.0,7.0,70,0.00,,,0.00,0.000000,,2013-04-02 12:02:00,
2013-04-02 07:32:00,11.0,4.0,-100.00,West,274,4.0,7.0,73,0.00,,,0.00,6.000000,,2013-04-02 12:32:00,
2013-04-02 07:42:00,11.0,4.0,-100.00,West,274,4.0,7.0,73,0.00,,,0.00,6.000000,,2013-04-02 12:42:00,
2013-04-02 07:53:00,11.0,4.0,-100.00,West,274,4.0,7.0,73,0.00,,,0.00,6.000000,,2013-04-02 12:53:00,
2013-04-02 08:02:00,11.0,4.0,-100.00,West,274,4.0,7.0,73,0.00,,,0.00,6.000000,,2013-04-02 13:02:00,
2013-04-02 08:33:00,16.0,6.0,-100.00,West,281,4.0,7.0,65,0.00,,,0.00,131.000000,,2013-04-02 13:33:00,
2013-04-02 08:42:00,16.0,6.0,-100.00,West,281,4.0,7.0,65,0.00,,,0.00,131.000000,,2013-04-02 13:42:00,
2013-04-02 08:52:00,16.0,6.0,-100.00,West,281,4.0,7.0,65,0.00,,,0.00,131.000000,,2013-04-02 13:52:00,
2013-04-02 09:02:00,16.0,6.0,-100.00,West,281,4.0,7.0,65,0.00,,,0.00,131.000000,,2013-04-02 14:02:00,
2013-04-02 09:33:00,22.0,7.0,-100.00,NNW,328,4.0,9.0,51,0.00,,,0.00,339.000000,,2013-04-02 14:33:00,
2013-04-02 09:43:00,22.0,7.0,-100.00,NNW,328,4.0,9.0,51,0.00,,,0.00,339.000000,,2013-04-02 14:43:00,
2013-04-02 09:52:00,22.0,7.0,-100.00,NNW,328,4.0,9.0,51,0.00,,,0.00,339.000000,,2013-04-02 14:52:00,
2013-04-02 10:02:00,22.0,7.0,-100.00,NNW,328,4.0,9.0,51,0.00,,,0.00,339.000000,,2013-04-02 15:02:00,
2013-04-02 10:04:00,27.0,6.0,-100.00,WNW,303,5.0,9.0,40,0.00,,,0.00,532.000000,,2013-04-02 15:04:00,
2013-04-02 10:33:00,27.0,6.0,-100.00,WNW,303,5.0,9.0,40,0.00,,,0.00,532.000000,,2013-04-02 15:33:00,
2013-04-02 10:43:00,27.0,6.0,-100.00,WNW,303,5.0,9.0,40,0.00,,,0.00,532.000000,,2013-04-02 15:43:00,
2013-04-02 10:58:00,27.0,6.0,-100.00,WNW,303,5.0,9.0,40,0.00,,,0.00,532.000000,,2013-04-02 15:58:00,
2013-04-02 11:04:00,29.0,3.0,-100.00,NNW,330,8.0,15.0,32,0.00,,,-99.99,721.000000,,2013-04-02 16:04:00,
2013-04-02 11:39:00,29.0,3.0,-100.00,NNW,330,8.0,15.0,32,0.00,,,-99.99,721.000000,,2013-04-02 16:39:00,
2013-04-02 11:44:00,29.0,3.0,-100.00,NNW,330,8.0,15.0,32,0.00,,,-99.99,721.000000,,2013-04-02 16:44:00,
2013-04-02 11:53:00,29.0,3.0,-100.00,NNW,330,8.0,15.0,32,0.00,,,-99.99,721.000000,,2013-04-02 16:53:00,
2013-04-02 12:35:00,31.0,-1.0,-100.00,NW,319,7.0,16.0,25,0.00,,,0.00,850.000000,,2013-04-02 17:35:00,
2013-04-02 12:43:00,31.0,-1.0,-100.00,NW,319,7.0,16.0,25,0.00,,,0.00,850.000000,,2013-04-02 17:43:00,
2013-04-02 12:55:00,31.0,-1.0,-100.00,NW,319,7.0,16.0,25,0.00,,,0.00,850.000000,,2013-04-02 17:55:00,
2013-04-02 13:03:00,31.0,-1.0,-100.00,NW,319,7.0,16.0,25,0.00,,,0.00,850.000000,,2013-04-02 18:03:00,
2013-04-02 13:35:00,32.0,-2.0,-100.00,NNW,331,7.0,15.0,23,0.00,,,0.00,920.000000,,2013-04-02 18:35:00,
2013-04-02 13:43:00,32.0,-2.0,-100.00,NNW,331,7.0,15.0,23,0.00,,,0.00,920.000000,,2013-04-02 18:43:00,
2013-04-02 13:57:00,32.0,-2.0,-100.00,NNW,331,7.0,15.0,23,0.00,,,0.00,920.000000,,2013-04-02 18:57:00,
2013-04-02 14:03:00,32.0,-2.0,-100.00,NNW,331,7.0,15.0,23,0.00,,,0.00,920.000000,,2013-04-02 19:03:00,
2013-04-02 14:34:00,32.0,-2.0,-100.00,NW,306,7.0,16.0,23,0.00,,,0.00,925.000000,,2013-04-02 19:34:00,
2013-04-02 14:47:00,32.0,-2.0,-100.00,NW,306,7.0,16.0,23,0.00,,,0.00,925.000000,,2013-04-02 19:47:00,
2013-04-02 14:56:00,32.0,-2.0,-100.00,NW,306,7.0,16.0,23,0.00,,,0.00,925.000000,,2013-04-02 19:56:00,
2013-04-02 15:03:00,32.0,-2.0,-100.00,NW,306,7.0,16.0,23,0.00,,,0.00,925.000000,,2013-04-02 20:03:00,
2013-04-02 15:04:00,32.0,-2.0,-100.00,NW,325,6.0,16.0,23,0.00,,,0.00,387.000000,,2013-04-02 20:04:00,
2013-04-02 15:34:00,32.0,-2.0,-100.00,NW,325,6.0,16.0,23,0.00,,,0.00,387.000000,,2013-04-02 20:34:00,
2013-04-02 15:44:00,32.0,-2.0,-100.00,NW,325,6.0,16.0,23,0.00,,,0.00,387.000000,,2013-04-02 20:44:00,
2013-04-02 15:54:00,32.0,-2.0,-100.00,NW,325,6.0,16.0,23,0.00,,,0.00,387.000000,,2013-04-02 20:54:00,
2013-04-02 17:34:00,33.0,-4.0,-100.00,NNW,343,6.0,14.0,20,-99.99,,,0.00,592.000000,,2013-04-02 22:34:00,
2013-04-02 17:44:00,33.0,-4.0,-100.00,NNW,343,6.0,14.0,20,-99.99,,,0.00,592.000000,,2013-04-02 22:44:00,
2013-04-02 17:54:00,33.0,-4.0,-100.00,NNW,343,6.0,14.0,20,-99.99,,,0.00,592.000000,,2013-04-02 22:54:00,
2013-04-02 18:02:00,33.0,-4.0,-100.00,NNW,343,6.0,14.0,20,-99.99,,,0.00,592.000000,,2013-04-02 23:02:00,
2013-04-02 18:37:00,30.0,-4.0,-100.00,WNW,301,7.0,13.0,22,0.00,,,0.00,389.000000,,2013-04-02 23:37:00,
2013-04-02 18:43:00,30.0,-4.0,-100.00,WNW,301,7.0,13.0,22,0.00,,,0.00,389.000000,,2013-04-02 23:43:00,
2013-04-02 18:54:00,30.0,-4.0,-100.00,WNW,301,7.0,13.0,22,0.00,,,0.00,389.000000,,2013-04-02 23:54:00,
2013-04-02 19:03:00,30.0,-4.0,-100.00,WNW,301,7.0,13.0,22,0.00,,,0.00,389.000000,,2013-04-03 00:03:00,
2013-04-02 19:34:00,27.0,-7.0,-100.00,WNW,303,6.0,13.0,22,0.00,,,0.00,100.000000,,2013-04-03 00:34:00,
2013-04-02 19:55:00,27.0,-7.0,-100.00,WNW,303,6.0,13.0,22,0.00,,,0.00,100.000000,,2013-04-03 00:55:00,
2013-04-02 20:03:00,27.0,-7.0,-100.00,WNW,303,6.0,13.0,22,0.00,,,0.00,100.000000,,2013-04-03 01:03:00,
2013-04-02 20:34:00,24.0,-6.0,-100.00,NW,315,3.0,10.0,26,0.00,,,0.00,14.000000,,2013-04-03 01:34:00,
2013-04-02 20:43:00,24.0,-6.0,-100.00,NW,315,3.0,10.0,26,0.00,,,0.00,14.000000,,2013-04-03 01:43:00,
2013-04-02 21:03:00,24.0,-6.0,-100.00,NW,315,3.0,10.0,26,0.00,,,0.00,14.000000,,2013-04-03 02:03:00,
2013-04-02 21:04:00,20.0,-6.0,-100.00,NW,308,2.0,4.0,31,0.00,,,0.00,0.000000,,2013-04-03 02:04:00,
2013-04-02 21:34:00,20.0,-6.0,-100.00,NW,308,2.0,4.0,31,0.00,,,0.00,0.000000,,2013-04-03 02:34:00,
2013-04-02 21:44:00,20.0,-6.0,-100.00,NW,308,2.0,4.0,31,0.00,,,0.00,0.000000,,2013-04-03 02:44:00,
2013-04-02 21:53:00,20.0,-6.0,-100.00,NW,308,2.0,4.0,31,0.00,,,0.00,0.000000,,2013-04-03 02:53:00,
2013-04-02 22:23:00,19.0,-7.0,-100.00,WNW,296,2.0,4.0,31,0.00,,,0.00,0.000000,,2013-04-03 03:23:00,
2013-04-02 22:38:00,19.0,-7.0,-100.00,WNW,296,2.0,4.0,31,0.00,,,0.00,0.000000,,2013-04-03 03:38:00,
2013-04-02 22:44:00,19.0,-7.0,-100.00,WNW,296,2.0,4.0,31,0.00,,,0.00,0.000000,,2013-04-03 03:44:00,
2013-04-02 22:54:00,19.0,-7.0,-100.00,WNW,296,2.0,4.0,31,0.00,,,0.00,0.000000,,2013-04-03 03:54:00,
2013-04-02 23:03:00,19.0,-7.0,-100.00,WNW,296,2.0,4.0,31,0.00,,,0.00,0.000000,,2013-04-03 04:03:00,
2013-04-02 23:23:00,18.0,-7.0,-100.00,NW,326,2.0,4.0,32,0.00,,,0.00,0.000000,,2013-04-03 04:23:00,
2013-04-02 23:33:00,18.0,-7.0,-100.00,NW,326,2.0,4.0,32,0.00,,,0.00,0.000000,,2013-04-03 04:33:00,
2013-04-02 23:43:00,18.0,-7.0,-100.00,NW,326,2.0,4.0,32,0.00,,,0.00,0.000000,,2013-04-03 04:43:00,
2013-04-02 23:53:00,18.0,-7.0,-100.00,NW,326,2.0,4.0,32,0.00,,,0.00,0.000000,,2013-04-03 04:53:00,